Time,TemperatureF,DewpointF,PressureIn,WindDirection,WindDirectionDegrees,WindSpeedMPH,WindSpeedGustMPH,Humidity,HourlyPrecipIn,Conditions,Clouds,dailyrainin,SoftwareType,DateUTC
2015-05-03 00:04:00,55.7,25.5,29.84,North,0,4.0,5.0,31,0.00,,---,0.00,VWS V15.00,2015-05-03 06:04:00,
2015-05-03 00:09:00,55.3,25.2,29.85,North,0,4.0,6.0,31,0.00,,---,0.00,VWS V15.00,2015-05-03 06:09:00,
2015-05-03 00:14:00,55.4,26.0,29.84,North,0,5.0,7.0,32,0.00,,---,0.00,VWS V15.00,2015-05-03 06:14:00,
2015-05-03 00:19:00,55.2,25.9,29.84,North,0,4.0,7.0,32,0.00,,---,0.00,VWS V15.00,2015-05-03 06:19:00,
2015-05-03 00:24:00,54.8,24.8,29.84,North,0,3.0,7.0,31,0.00,,---,0.00,VWS V15.00,2015-05-03 06:24:00,
2015-05-03 00:29:00,54.8,24.8,29.85,North,0,3.0,7.0,31,0.00,,---,0.00,VWS V15.00,2015-05-03 06:29:00,
2015-05-03 00:34:00,54.6,25.4,29.85,North,0,4.0,7.0,32,0.00,,---,0.00,VWS V15.00,2015-05-03 06:34:00,
2015-05-03 00:39:00,54.4,25.9,29.86,North,0,8.0,9.0,33,0.00,,---,0.00,VWS V15.00,2015-05-03 06:39:00,
2015-05-03 00:44:00,54.4,26.6,29.85,North,0,6.0,11.0,34,0.00,,---,0.00,VWS V15.00,2015-05-03 06:44:00,
2015-05-03 00:49:00,54.2,26.5,29.85,North,0,4.0,11.0,34,0.00,,---,0.00,VWS V15.00,2015-05-03 06:49:00,
2015-05-03 00:54:00,54.2,26.5,29.85,North,0,3.0,11.0,34,0.00,,---,0.00,VWS V15.00,2015-05-03 06:54:00,
2015-05-03 00:59:00,54.1,26.4,29.85,North,0,7.0,11.0,34,0.00,,---,0.00,VWS V15.00,2015-05-03 06:59:00,
2015-05-03 01:05:00,54.0,25.6,29.86,North,0,4.0,7.0,33,0.00,,---,0.00,VWS V15.00,2015-05-03 07:05:00,
2015-05-03 01:10:00,54.0,25.6,29.86,North,0,5.0,9.0,33,0.00,,---,0.00,VWS V15.00,2015-05-03 07:10:00,
2015-05-03 01:15:00,53.7,26.0,29.85,North,0,5.0,9.0,34,0.00,,---,0.00,VWS V15.00,2015-05-03 07:15:00,
2015-05-03 01:20:00,53.3,25.7,29.85,North,0,3.0,9.0,34,0.00,,---,0.00,VWS V15.00,2015-05-03 07:20:00,
2015-05-03 01:25:00,53.0,26.1,29.86,North,0,1.0,9.0,35,0.00,,---,0.00,VWS V15.00,2015-05-03 07:25:00,
2015-05-03 01:30:00,52.7,26.5,29.86,North,0,1.0,3.0,36,0.00,,---,0.00,VWS V15.00,2015-05-03 07:30:00,
2015-05-03 01:35:00,52.4,26.2,29.86,North,0,4.0,5.0,36,0.00,,---,0.00,VWS V15.00,2015-05-03 07:35:00,
2015-05-03 01:40:00,51.6,26.2,29.86,North,0,3.0,6.0,37,0.00,,---,0.00,VWS V15.00,2015-05-03 07:40:00,
2015-05-03 01:45:00,51.1,25.8,29.86,North,0,1.0,6.0,37,0.00,,---,0.00,VWS V15.00,2015-05-03 07:45:00,
2015-05-03 01:50:00,50.8,26.8,29.86,North,0,2.0,6.0,39,0.00,,---,0.00,VWS V15.00,2015-05-03 07:50:00,
2015-05-03 01:55:00,50.6,27.2,29.85,North,0,3.0,6.0,40,0.00,,---,0.00,VWS V15.00,2015-05-03 07:55:00,
2015-05-03 02:00:00,50.6,27.2,29.86,North,0,0.0,2.0,40,0.00,,---,0.00,VWS V15.00,2015-05-03 08:00:00,
2015-05-03 02:06:00,50.8,27.4,29.86,North,0,2.0,3.0,40,0.00,,---,0.00,VWS V15.00,2015-05-03 08:06:00,
2015-05-03 02:11:00,50.9,28.1,29.87,North,0,4.0,4.0,41,0.00,,---,0.00,VWS V15.00,2015-05-03 08:11:00,
2015-05-03 02:16:00,51.1,28.2,29.86,North,0,4.0,4.0,41,0.00,,---,0.00,VWS V15.00,2015-05-03 08:16:00,
2015-05-03 02:21:00,51.4,28.5,29.86,North,0,5.0,6.0,41,0.00,,---,0.00,VWS V15.00,2015-05-03 08:21:00,
2015-05-03 02:26:00,51.6,28.7,29.86,North,0,3.0,6.0,41,0.00,,---,0.00,VWS V15.00,2015-05-03 08:26:00,
2015-05-03 02:31:00,51.9,29.0,29.86,North,0,5.0,8.0,41,0.00,,---,0.00,VWS V15.00,2015-05-03 08:31:00,
2015-05-03 02:36:00,52.1,29.1,29.86,North,0,4.0,8.0,41,0.00,,---,0.00,VWS V15.00,2015-05-03 08:36:00,
2015-05-03 02:41:00,52.3,29.3,29.87,North,0,8.0,8.0,41,0.00,,---,0.00,VWS V15.00,2015-05-03 08:41:00,
2015-05-03 02:46:00,52.1,29.7,29.86,North,0,7.0,13.0,42,0.00,,---,0.00,VWS V15.00,2015-05-03 08:46:00,
2015-05-03 02:51:00,51.3,30.1,29.86,North,359,12.0,15.0,44,0.00,,---,0.00,VWS V15.00,2015-05-03 08:51:00,
2015-05-03 02:56:00,50.7,31.2,29.86,North,0,9.0,15.0,47,0.00,,---,0.00,VWS V15.00,2015-05-03 08:56:00,
2015-05-03 03:01:00,50.4,31.5,29.87,North,0,9.0,10.0,48,0.00,,---,0.00,VWS V15.00,2015-05-03 09:01:00,
2015-05-03 03:06:00,50.2,31.8,29.88,North,359,7.0,11.0,49,0.00,,---,0.00,VWS V15.00,2015-05-03 09:06:00,
2015-05-03 03:12:00,49.9,32.0,29.88,North,0,5.0,13.0,50,0.00,,---,0.00,VWS V15.00,2015-05-03 09:12:00,
2015-05-03 03:17:00,49.5,32.1,29.88,North,359,4.0,13.0,51,0.00,,---,0.00,VWS V15.00,2015-05-03 09:17:00,
2015-05-03 03:22:00,49.0,32.2,29.88,North,0,7.0,13.0,52,0.00,,---,0.00,VWS V15.00,2015-05-03 09:22:00,
2015-05-03 03:27:00,48.6,32.3,29.88,North,0,4.0,13.0,53,0.00,,---,0.00,VWS V15.00,2015-05-03 09:27:00,
2015-05-03 03:32:00,48.1,32.7,29.87,North,0,6.0,13.0,55,0.00,,---,0.00,VWS V15.00,2015-05-03 09:32:00,
2015-05-03 03:37:00,47.8,32.4,29.87,North,358,14.0,14.0,55,0.00,,---,0.00,VWS V15.00,2015-05-03 09:37:00,
2015-05-03 03:42:00,47.6,32.7,29.88,North,0,11.0,17.0,56,0.00,,---,0.00,VWS V15.00,2015-05-03 09:42:00,
2015-05-03 03:47:00,47.2,32.8,29.88,North,0,6.0,17.0,57,0.00,,---,0.00,VWS V15.00,2015-05-03 09:47:00,
2015-05-03 03:52:00,46.9,32.9,29.89,North,0,7.0,17.0,58,0.00,,---,0.00,VWS V15.00,2015-05-03 09:52:00,
2015-05-03 03:57:00,46.6,32.6,29.89,North,0,5.0,17.0,58,0.00,,---,0.00,VWS V15.00,2015-05-03 09:57:00,
2015-05-03 04:02:00,46.3,32.8,29.90,North,1,9.0,10.0,59,0.00,,---,0.00,VWS V15.00,2015-05-03 10:02:00,
2015-05-03 04:07:00,46.1,33.0,29.88,North,355,9.0,17.0,60,0.00,,---,0.00,VWS V15.00,2015-05-03 10:07:00,
2015-05-03 04:12:00,46.0,32.9,29.89,North,0,7.0,17.0,60,0.00,,---,0.00,VWS V15.00,2015-05-03 10:12:00,
2015-05-03 04:17:00,45.8,32.7,29.89,North,357,5.0,17.0,60,0.00,,---,0.00,VWS V15.00,2015-05-03 10:17:00,
2015-05-03 04:22:00,45.7,33.0,29.90,North,0,3.0,17.0,61,0.00,,---,0.00,VWS V15.00,2015-05-03 10:22:00,
2015-05-03 04:27:00,45.6,32.9,29.90,North,0,5.0,17.0,61,0.00,,---,0.00,VWS V15.00,2015-05-03 10:27:00,
2015-05-03 04:33:00,45.4,33.2,29.90,North,0,5.0,11.0,62,0.00,,---,0.00,VWS V15.00,2015-05-03 10:33:00,
2015-05-03 04:38:00,45.3,33.5,29.90,North,359,6.0,14.0,63,0.00,,---,0.00,VWS V15.00,2015-05-03 10:38:00,
2015-05-03 04:43:00,45.2,33.4,29.90,North,355,10.0,14.0,63,0.00,,---,0.00,VWS V15.00,2015-05-03 10:43:00,
2015-05-03 04:48:00,45.1,33.3,29.90,North,0,11.0,14.0,63,0.00,,---,0.00,VWS V15.00,2015-05-03 10:48:00,
2015-05-03 04:53:00,45.0,32.8,29.90,North,0,9.0,14.0,62,0.00,,---,0.00,VWS V15.00,2015-05-03 10:53:00,
2015-05-03 04:58:00,44.8,32.6,29.90,North,0,3.0,14.0,62,0.00,,---,0.00,VWS V15.00,2015-05-03 10:58:00,
2015-05-03 05:03:00,44.4,32.2,29.90,North,0,5.0,7.0,62,0.00,,---,0.00,VWS V15.00,2015-05-03 11:03:00,
2015-05-03 05:08:00,44.1,32.3,29.90,North,0,6.0,8.0,63,0.00,,---,0.00,VWS V15.00,2015-05-03 11:08:00,
2015-05-03 05:13:00,43.8,32.4,29.90,North,0,6.0,8.0,64,0.00,,---,0.00,VWS V15.00,2015-05-03 11:13:00,
2015-05-03 05:18:00,43.5,32.2,29.91,North,0,4.0,8.0,64,0.00,,---,0.00,VWS V15.00,2015-05-03 11:18:00,
2015-05-03 05:23:00,43.1,32.2,29.91,North,0,5.0,8.0,65,0.00,,---,0.00,VWS V15.00,2015-05-03 11:23:00,
2015-05-03 05:28:00,42.8,31.9,29.90,North,0,4.0,8.0,65,0.00,,---,0.00,VWS V15.00,2015-05-03 11:28:00,
2015-05-03 05:33:00,42.6,31.7,29.91,North,359,9.0,10.0,65,0.00,,---,0.00,VWS V15.00,2015-05-03 11:33:00,
2015-05-03 05:38:00,42.5,31.6,29.91,North,0,13.0,13.0,65,0.00,,---,0.00,VWS V15.00,2015-05-03 11:38:00,
2015-05-03 05:43:00,42.4,31.5,29.91,North,0,8.0,14.0,65,0.00,,---,0.00,VWS V15.00,2015-05-03 11:43:00,
2015-05-03 05:49:00,42.3,31.4,29.91,NNW,341,8.0,14.0,65,0.00,,---,0.00,VWS V15.00,2015-05-03 11:49:00,
2015-05-03 05:54:00,42.1,31.2,29.91,North,356,7.0,14.0,65,0.00,,---,0.00,VWS V15.00,2015-05-03 11:54:00,
2015-05-03 05:59:00,42.0,30.7,29.92,North,0,9.0,14.0,64,0.00,,---,0.00,VWS V15.00,2015-05-03 11:59:00,
2015-05-03 06:04:00,41.8,30.5,29.92,NNW,343,5.0,10.0,64,0.00,,---,0.00,VWS V15.00,2015-05-03 12:04:00,
2015-05-03 06:09:00,41.6,30.7,29.91,North,359,8.0,10.0,65,0.00,,---,0.00,VWS V15.00,2015-05-03 12:09:00,
2015-05-03 06:14:00,41.5,30.6,29.92,North,0,6.0,10.0,65,0.00,,---,0.00,VWS V15.00,2015-05-03 12:14:00,
2015-05-03 06:19:00,41.5,30.2,29.92,North,0,4.0,10.0,64,0.00,,---,0.00,VWS V15.00,2015-05-03 12:19:00,
2015-05-03 06:29:00,41.3,30.1,29.93,North,0,6.0,10.0,64,0.00,,---,0.00,VWS V15.00,2015-05-03 12:29:00,
2015-05-03 06:34:00,41.2,30.0,29.93,North,0,7.0,10.0,64,0.00,,---,0.00,VWS V15.00,2015-05-03 12:34:00,
2015-05-03 06:39:00,41.3,29.7,29.93,North,0,4.0,11.0,63,0.00,,---,0.00,VWS V15.00,2015-05-03 12:39:00,
2015-05-03 06:44:00,41.4,29.8,29.93,North,0,6.0,11.0,63,0.00,,---,0.00,VWS V15.00,2015-05-03 12:44:00,
2015-05-03 06:49:00,41.5,29.5,29.93,North,0,7.0,11.0,62,0.00,,---,0.00,VWS V15.00,2015-05-03 12:49:00,
2015-05-03 06:54:00,41.6,29.6,29.93,North,0,4.0,12.0,62,0.00,,---,0.00,VWS V15.00,2015-05-03 12:54:00,
2015-05-03 06:59:00,41.8,29.8,29.93,North,0,6.0,12.0,62,0.00,,---,0.00,VWS V15.00,2015-05-03 12:59:00,
2015-05-03 07:04:00,42.0,29.5,29.93,North,359,6.0,9.0,61,0.00,,---,0.00,VWS V15.00,2015-05-03 13:04:00,
2015-05-03 07:10:00,42.3,29.8,29.93,North,0,6.0,10.0,61,0.00,,---,0.00,VWS V15.00,2015-05-03 13:10:00,
2015-05-03 07:15:00,42.6,29.7,29.93,North,0,0.0,10.0,60,0.00,,---,0.00,VWS V15.00,2015-05-03 13:15:00,
2015-05-03 07:25:00,43.1,29.3,29.93,NW,321,3.0,13.0,58,0.00,,---,0.00,VWS V15.00,2015-05-03 13:25:00,
2015-05-03 07:30:00,43.6,29.4,29.93,North,352,9.0,13.0,57,0.00,,---,0.00,VWS V15.00,2015-05-03 13:30:00,
2015-05-03 07:35:00,44.1,29.4,29.94,NNW,343,9.0,13.0,56,0.00,,---,0.00,VWS V15.00,2015-05-03 13:35:00,
2015-05-03 07:40:00,44.5,29.4,29.93,North,358,12.0,15.0,55,0.00,,---,0.00,VWS V15.00,2015-05-03 13:40:00,
2015-05-03 07:45:00,45.2,29.6,29.93,North,0,12.0,15.0,54,0.00,,---,0.00,VWS V15.00,2015-05-03 13:45:00,
2015-05-03 07:50:00,45.7,29.6,29.94,North,355,10.0,16.0,53,0.00,,---,0.00,VWS V15.00,2015-05-03 13:50:00,
2015-05-03 07:55:00,46.2,29.6,29.94,North,3,3.0,16.0,52,0.00,,---,0.00,VWS V15.00,2015-05-03 13:55:00,
2015-05-03 08:00:00,46.7,29.5,29.95,North,0,7.0,7.0,51,0.00,,---,0.00,VWS V15.00,2015-05-03 14:00:00,
2015-05-03 08:05:00,47.1,29.9,29.94,NNW,348,4.0,12.0,51,0.00,,---,0.00,VWS V15.00,2015-05-03 14:05:00,
2015-05-03 08:10:00,47.3,29.6,29.94,North,0,11.0,14.0,50,0.00,,---,0.00,VWS V15.00,2015-05-03 14:10:00,
2015-05-03 08:15:00,47.4,29.7,29.95,North,349,8.0,15.0,50,0.00,,---,0.00,VWS V15.00,2015-05-03 14:15:00,
2015-05-03 08:20:00,47.7,29.5,29.93,NNW,338,6.0,16.0,49,0.00,,---,0.00,VWS V15.00,2015-05-03 14:20:00,
2015-05-03 08:26:00,47.9,29.7,29.93,North,358,14.0,19.0,49,0.00,,---,0.00,VWS V15.00,2015-05-03 14:26:00,
2015-05-03 08:31:00,48.1,29.9,29.93,North,0,8.0,12.0,49,0.00,,---,0.00,VWS V15.00,2015-05-03 14:31:00,
2015-05-03 08:36:00,48.2,30.0,29.94,North,0,10.0,18.0,49,0.00,,---,0.00,VWS V15.00,2015-05-03 14:36:00,
2015-05-03 08:41:00,48.3,29.5,29.94,North,356,8.0,18.0,48,0.00,,---,0.00,VWS V15.00,2015-05-03 14:41:00,
2015-05-03 08:46:00,48.7,29.4,29.94,North,357,17.0,20.0,47,0.00,,---,0.00,VWS V15.00,2015-05-03 14:46:00,
2015-05-03 08:51:00,49.2,29.9,29.94,North,0,12.0,20.0,47,0.00,,---,0.00,VWS V15.00,2015-05-03 14:51:00,
2015-05-03 08:56:00,49.6,29.7,29.95,North,0,14.0,20.0,46,0.00,,---,0.00,VWS V15.00,2015-05-03 14:56:00,
2015-05-03 09:01:00,49.6,29.7,29.95,North,0,11.0,15.0,46,0.00,,---,0.00,VWS V15.00,2015-05-03 15:01:00,
2015-05-03 09:06:00,49.7,29.8,29.94,North,354,8.0,18.0,46,0.00,,---,0.00,VWS V15.00,2015-05-03 15:06:00,
2015-05-03 09:11:00,50.1,29.6,29.94,North,0,15.0,18.0,45,0.00,,---,0.00,VWS V15.00,2015-05-03 15:11:00,
2015-05-03 09:16:00,50.4,29.9,29.95,North,0,10.0,18.0,45,0.00,,---,0.00,VWS V15.00,2015-05-03 15:16:00,
2015-05-03 09:21:00,50.5,30.0,29.94,North,359,10.0,18.0,45,0.00,,---,0.00,VWS V15.00,2015-05-03 15:21:00,
2015-05-03 09:26:00,50.6,29.5,29.94,North,0,15.0,21.0,44,0.00,,---,0.00,VWS V15.00,2015-05-03 15:26:00,
2015-05-03 09:31:00,50.9,29.8,29.94,North,0,13.0,17.0,44,0.00,,---,0.00,VWS V15.00,2015-05-03 15:31:00,
2015-05-03 09:36:00,51.0,29.9,29.94,North,0,11.0,19.0,44,0.00,,---,0.00,VWS V15.00,2015-05-03 15:36:00,
2015-05-03 09:42:00,51.5,30.3,29.95,NNW,348,9.0,19.0,44,0.00,,---,0.00,VWS V15.00,2015-05-03 15:42:00,
2015-05-03 09:47:00,51.9,30.1,29.95,North,0,12.0,19.0,43,0.00,,---,0.00,VWS V15.00,2015-05-03 15:47:00,
2015-05-03 09:52:00,52.4,30.0,29.94,North,354,5.0,19.0,42,0.00,,---,0.00,VWS V15.00,2015-05-03 15:52:00,
2015-05-03 09:57:00,52.5,29.5,29.93,North,0,16.0,20.0,41,0.00,,---,0.00,VWS V15.00,2015-05-03 15:57:00,
2015-05-03 10:02:00,52.4,30.0,29.95,North,0,8.0,15.0,42,0.00,,---,0.00,VWS V15.00,2015-05-03 16:02:00,
2015-05-03 10:07:00,52.7,29.7,29.95,North,0,10.0,18.0,41,0.00,,---,0.00,VWS V15.00,2015-05-03 16:07:00,
2015-05-03 10:12:00,52.9,29.2,29.94,North,0,13.0,18.0,40,0.00,,---,0.00,VWS V15.00,2015-05-03 16:12:00,
2015-05-03 10:17:00,53.2,29.5,29.95,North,0,14.0,18.0,40,0.00,,---,0.00,VWS V15.00,2015-05-03 16:17:00,
2015-05-03 10:22:00,53.2,29.5,29.94,North,0,10.0,18.0,40,0.00,,---,0.00,VWS V15.00,2015-05-03 16:22:00,
2015-05-03 10:27:00,53.2,29.5,29.94,North,359,10.0,18.0,40,0.00,,---,0.00,VWS V15.00,2015-05-03 16:27:00,
2015-05-03 10:32:00,53.3,29.6,29.95,North,0,6.0,15.0,40,0.00,,---,0.00,VWS V15.00,2015-05-03 16:32:00,
2015-05-03 10:37:00,53.7,29.4,29.95,North,358,11.0,16.0,39,0.00,,---,0.00,VWS V15.00,2015-05-03 16:37:00,
2015-05-03 10:42:00,53.8,30.1,29.94,North,358,5.0,18.0,40,0.00,,---,0.00,VWS V15.00,2015-05-03 16:42:00,
2015-05-03 10:47:00,53.8,29.4,29.94,North,357,7.0,18.0,39,0.00,,---,0.00,VWS V15.00,2015-05-03 16:47:00,
2015-05-03 10:52:00,54.1,29.7,29.95,NNW,333,5.0,18.0,39,0.00,,---,0.00,VWS V15.00,2015-05-03 16:52:00,
2015-05-03 10:58:00,53.7,29.4,29.94,North,354,11.0,19.0,39,0.00,,---,0.00,VWS V15.00,2015-05-03 16:58:00,
2015-05-03 11:03:00,54.2,29.8,29.96,North,0,6.0,13.0,39,0.00,,---,0.00,VWS V15.00,2015-05-03 17:03:00,
2015-05-03 11:08:00,54.3,30.5,29.95,North,0,7.0,14.0,40,0.00,,---,0.00,VWS V15.00,2015-05-03 17:08:00,
2015-05-03 11:13:00,54.9,30.4,29.94,North,352,6.0,14.0,39,0.00,,---,0.00,VWS V15.00,2015-05-03 17:13:00,
2015-05-03 11:18:00,54.8,29.7,29.94,North,356,7.0,14.0,38,0.00,,---,0.00,VWS V15.00,2015-05-03 17:18:00,
2015-05-03 11:23:00,55.2,30.1,29.94,North,0,8.0,14.0,38,0.00,,---,0.00,VWS V15.00,2015-05-03 17:23:00,
2015-05-03 11:28:00,55.8,29.9,29.94,North,357,11.0,14.0,37,0.00,,---,0.00,VWS V15.00,2015-05-03 17:28:00,
2015-05-03 11:33:00,56.2,29.6,29.95,NW,320,3.0,9.0,36,0.00,,---,0.00,VWS V15.00,2015-05-03 17:33:00,
2015-05-03 11:38:00,56.2,29.6,29.96,NNW,342,7.0,9.0,36,0.00,,---,0.00,VWS V15.00,2015-05-03 17:38:00,
2015-05-03 11:43:00,56.1,30.2,29.95,NNW,342,4.0,10.0,37,0.00,,---,0.00,VWS V15.00,2015-05-03 17:43:00,
2015-05-03 11:48:00,55.8,29.3,29.95,North,351,7.0,10.0,36,0.00,,---,0.00,VWS V15.00,2015-05-03 17:48:00,
2015-05-03 11:53:00,56.0,29.4,29.95,NNW,346,3.0,10.0,36,0.00,,---,0.00,VWS V15.00,2015-05-03 17:53:00,
2015-05-03 11:58:00,56.0,30.1,29.95,NNW,344,6.0,11.0,37,0.00,,---,0.00,VWS V15.00,2015-05-03 17:58:00,
2015-05-03 12:03:00,55.8,30.6,29.95,NNW,342,6.0,11.0,38,0.00,,---,0.00,VWS V15.00,2015-05-03 18:03:00,
2015-05-03 12:08:00,55.9,29.4,29.94,North,359,7.0,12.0,36,0.00,,---,0.00,VWS V15.00,2015-05-03 18:08:00,
2015-05-03 12:13:00,56.1,30.2,29.95,North,0,5.0,15.0,37,0.00,,---,0.00,VWS V15.00,2015-05-03 18:13:00,
2015-05-03 12:18:00,56.3,30.4,29.94,North,358,7.0,15.0,37,0.00,,---,0.00,VWS V15.00,2015-05-03 18:18:00,
2015-05-03 12:24:00,57.2,29.8,29.94,NNW,339,4.0,15.0,35,0.00,,---,0.00,VWS V15.00,2015-05-03 18:24:00,
2015-05-03 12:29:00,57.1,30.4,29.95,North,354,4.0,15.0,36,0.00,,---,0.00,VWS V15.00,2015-05-03 18:29:00,
2015-05-03 12:34:00,57.6,30.2,29.95,North,358,6.0,11.0,35,0.00,,---,0.00,VWS V15.00,2015-05-03 18:34:00,
2015-05-03 12:39:00,57.0,29.6,29.94,North,359,0.0,11.0,35,0.00,,---,0.00,VWS V15.00,2015-05-03 18:39:00,
2015-05-03 12:44:00,57.3,30.6,29.93,North,0,6.0,14.0,36,0.00,,---,0.00,VWS V15.00,2015-05-03 18:44:00,
2015-05-03 12:49:00,57.9,30.4,29.94,NNW,346,3.0,14.0,35,0.00,,---,0.00,VWS V15.00,2015-05-03 18:49:00,
2015-05-03 12:54:00,58.3,29.3,29.93,North,0,4.0,14.0,33,0.00,,---,0.00,VWS V15.00,2015-05-03 18:54:00,
2015-05-03 12:59:00,58.3,30.8,29.94,North,2,8.0,14.0,35,0.00,,---,0.00,VWS V15.00,2015-05-03 18:59:00,
2015-05-03 13:04:00,58.3,30.8,29.93,North,0,1.0,8.0,35,0.00,,---,0.00,VWS V15.00,2015-05-03 19:04:00,
2015-05-03 13:09:00,59.0,30.7,29.93,North,0,7.0,11.0,34,0.00,,---,0.00,VWS V15.00,2015-05-03 19:09:00,
2015-05-03 13:14:00,58.6,30.3,29.93,North,357,4.0,12.0,34,0.00,,---,0.00,VWS V15.00,2015-05-03 19:14:00,
2015-05-03 13:19:00,59.1,31.5,29.93,North,0,8.0,14.0,35,0.00,,---,0.00,VWS V15.00,2015-05-03 19:19:00,
2015-05-03 13:24:00,59.3,31.7,29.93,North,355,6.0,14.0,35,0.00,,---,0.00,VWS V15.00,2015-05-03 19:24:00,
2015-05-03 13:29:00,59.0,30.0,29.94,North,353,4.0,14.0,33,0.00,,---,0.00,VWS V15.00,2015-05-03 19:29:00,
2015-05-03 13:35:00,59.5,31.1,29.93,North,357,5.0,10.0,34,0.00,,---,0.00,VWS V15.00,2015-05-03 19:35:00,
2015-05-03 13:40:00,60.5,31.3,29.92,North,0,1.0,10.0,33,0.00,,---,0.00,VWS V15.00,2015-05-03 19:40:00,
2015-05-03 13:45:00,60.7,31.5,29.93,NNW,339,1.0,10.0,33,0.00,,---,0.00,VWS V15.00,2015-05-03 19:45:00,
2015-05-03 13:50:00,60.6,31.4,29.93,North,0,9.0,10.0,33,0.00,,---,0.00,VWS V15.00,2015-05-03 19:50:00,
2015-05-03 13:55:00,61.3,32.0,29.93,North,354,3.0,11.0,33,0.00,,---,0.00,VWS V15.00,2015-05-03 19:55:00,
2015-05-03 14:00:00,60.6,32.1,29.93,North,353,3.0,4.0,34,0.00,,---,0.00,VWS V15.00,2015-05-03 20:00:00,
2015-05-03 14:05:00,60.6,31.4,29.94,North,0,1.0,6.0,33,0.00,,---,0.00,VWS V15.00,2015-05-03 20:05:00,
2015-05-03 14:10:00,60.2,31.0,29.92,North,354,3.0,11.0,33,0.00,,---,0.00,VWS V15.00,2015-05-03 20:10:00,
2015-05-03 14:15:00,60.2,31.0,29.93,North,0,3.0,11.0,33,0.00,,---,0.00,VWS V15.00,2015-05-03 20:15:00,
2015-05-03 14:20:00,60.3,31.8,29.93,North,351,8.0,11.0,34,0.00,,---,0.00,VWS V15.00,2015-05-03 20:20:00,
2015-05-03 14:25:00,60.7,31.5,29.93,NNW,333,5.0,12.0,33,0.00,,---,0.00,VWS V15.00,2015-05-03 20:25:00,
2015-05-03 14:30:00,60.9,31.6,29.93,NNW,347,4.0,10.0,33,0.00,,---,0.00,VWS V15.00,2015-05-03 20:30:00,